Main page
METAR-TAF:

METAR-TAF

Airports :

Hutchinson County Airport

Borger, Texas, United States

latitude: 35-41-42N, longitude: 101-23-42W, elevation: 3054 ft

Current weather observation

The report was made 48 minutes ago, at 03:51 UTC
Wind 13 mph from the South/Southeast with gusts up to 22 mph
Temperature 45°F
Humidity 49%
Pressure 29.94 in. Hg
Visibility: 10 miles
Clear sky

METAR: KBGD 210351Z AUTO 15011G19KT 10SM CLR 07/M03 A2994 RMK AO2 SLP141 T00671033

Time: 22:39 (04:39 UTC)


TAF: missing

Weather observations and forecasts of more than 4000 airports (METAR and TAF reports).

The available stations are represented by yellow and red dots on the map.

Hover mouse over dot to see the name of the station.

Then click to see weather observations and forecasts.

To change the map : click on the green buttons with a black cross to zoom in, on the green button with a dash to zoom out, or on the green arrows for adjacent maps.


METAR-TAF: